SCP
-0 0 -0 -1 -0 -0 -0 -0 -0 -0 -0 -0 -0 -0 -0 -0 -0 -0 -0 -0 -0 -0 -0 -0 -0 -0 0 0 0 0 -0 -0 -0 0 0 0 0 0 0 0 0 0 0
-0 0 -0 -0 -0 -0 -0 -0 0 0 0 0 -0 -0 -0 -0 0 -0 -0 -0 -0 -0 -0 -0 -0 -0 0 0 0 -0 -0 -0 0 0 0 0 0 0 0 0 0 0 0
0 0 0 -0 -0 -0 -0 -0 0 0 0 0 0 -0 -0 -0 0 0 0 -0 -0 -0 -0 -0 -0 -0 -0 -0 -0 -0 0 0 0 0 0 0 0 0 0 0 0 0 0
0 0 0 0 -0 -0 0 0 0 0 0 0 0 0 0 0 -0 0 0 0 0 0 0 0 0 0 0 -0 -0 -0 -0 0 0 0 0 0 0 0 0 0 0 0 0
0 1 1 0 0 0 0 0 0 0 0 0 0 0 0 0 0 0 0 0 0 0 0 0 0 0 0 -0 -0 -0 -0 0 0 0 0 0 0 0 0 0 0 0 0
0 1 1 1 1 1 1 0 0 0 0 0 0 0 0 0 0 0 0 0 0 0 0 0 0 0 0 0 -0 -0 -0 0 0 0 0 0 0 0 0 0 0 0 0
0 0 1 1 1 0 1 0 0 0 0 0 0 0 0 0 0 0 0 0 0 0 0 0 0 0 0 0 -0 -0 -0 0 0 0 0 0 0 0 0 0 0 0 0
0 0 0 1 1 1 1 0 0 0 0 0 0 0 0 0 0 0 0 0 0 0 0 -0 0 0 0 -0 -0 -0 -0 0 0 0 0 0 0 0 0 0 0 0 0
1 1 1 1 1 1 1 0 0 0 0 0 0 0 0 0 0 0 0 0 0 0 -0 -0 -0 -0 -0 -0 -0 -0 -0 -0 0 0 0 0 0 0 0 0 0 0 0
2 2 1 1 1 1 1 0 0 0 0 0 0 0 0 0 0 0 0 0 0 0 0 -0 -0 -0 -0 -0 -0 -0 -0 -0 0 0 0 0 0 0 0 0 0 0 0
2 2 1 1 1 1 1 1 1 0 0 1 1 1 0 0 0 0 0 0 0 0 0 -0 -0 -0 -0 -0 -0 -0 -0 0 0 0 0 0 0 0 0 0 0 0 0
1 2 1 1 1 1 2 2 1 1 1 1 1 1 0 0 0 0 0 0 0 0 0 -0 -0 -0 -0 0 -0 0 0 0 0 0 0 0 0 0 0 0 0 0 0
0 1 1 1 0 0 1 2 2 1 1 1 1 1 0 0 0 0 0 0 0 0 0 -0 -0 0 0 0 0 0 0 0 0 0 0 0 0 0 0 0 0 0 0
0 0 1 0 0 0 0 2 2 1 1 1 0 0 0 0 0 0 0 0 0 0 0 -0 0 0 0 0 0 0 0 0 0 0 0 0 0 0 0 0 0 0 0
0 0 0 2 0 0 0 2 1 1 1 0 0 0 0 0 0 0 0 0 0 0 0 -0 0 0 0 0 0 0 0 0 0 0 0 0 0 0 0 0 0 0 0
0 0 0 1 2 1 0 1 1 1 1 0 0 0 0 0 0 0 0 0 0 0 0 0 0 0 0 0 0 0 0 0 0 0 0 0 0 0 0 0 0 0 0
0 0 -0 -0 3 1 1 1 0 0 0 0 0 0 0 0 0 0 0 0 0 0 0 0 0 0 0 0 0 0 0 0 0 0 0 0 0 0 0 0 0 0 0
0 0 0 0 1 2 2 1 0 0 0 0 0 0 0 0 0 0 0 0 0 0 0 0 1 0 0 0 0 0 0 0 0 0 0 0 0 0 0 0 0 0 0
0 0 0 0 0 2 3 2 1 0 0 0 0 0 0 0 0 0 0 0 0 0 0 0 0 0 1 0 0 0 0 0 0 0 0 0 0 0 0 0 0 0 0
0 0 0 0 0 3 4 3 3 2 0 0 0 1 0 0 1 0 0 0 0 0 1 1 0 0 0 0 0 0 0 0 0 0 0 0 0 0 0 0 0 0 0
0 0 0 0 0 2 4 4 2 2 3 0 0 1 1 0 1 0 0 0 0 0 0 1 1 0 0 0 0 0 0 0 0 0 0 0 0 0 0 0 0 0 0
0 0 0 0 0 0 3 2 2 1 1 2 1 3 1 1 1 0 0 0 0 1 1 0 0 1 0 0 0 0 0 0 0 0 0 0 0 0 0 0 0 0 0
0 0 0 0 0 0 2 2 1 0 0 0 2 2 2 1 1 0 0 1 1 1 1 1 1 1 0 0 0 0 0 0 0 0 0 0 0 0 0 0 0 0 0
0 0 0 0 0 0 1 4 2 1 1 1 1 1 2 1 1 0 0 1 1 1 1 1 1 1 0 0 0 0 0 0 0 0 0 0 0 0 0 0 0 0 0
0 0 0 0 0 0 0 3 4 3 2 2 2 1 1 1 1 0 0 1 0 1 1 1 1 1 0 0 0 0 0 0 0 0 0 0 0 0 0 0 0 0 0
0 0 0 0 0 0 1 3 3 2 2 2 1 1 1 1 0 0 0 2 2 1 1 0 0 0 0 0 0 0 0 0 0 0 0 0 0 0 0 0 0 0 0
Wind_Speed_500mb
16 38 47 45 43 45 44 37 35 40 42 42 41 40 38 37 35 32 30 27 24 22 22 21 20 20 19 18 17 18 19 17 10 12 15 13 22 23 23 25 31 33 32
18 38 42 42 43 43 44 41 34 34 38 39 39 40 39 35 32 29 27 25 21 20 19 19 18 17 17 18 18 20 22 13 9 11 12 12 22 24 28 28 32 34 32
15 31 42 38 40 43 44 44 37 33 35 35 36 37 37 33 29 27 23 21 21 19 17 16 15 14 15 15 16 19 18 10 10 9 6 15 17 19 28 29 31 32 33
4 11 36 41 39 40 42 45 40 33 32 35 34 36 35 32 27 22 17 18 17 17 16 15 13 12 12 12 15 17 15 10 9 5 10 7 12 21 32 33 33 31 33
10 9 31 40 40 40 38 42 42 35 29 32 34 35 34 30 25 21 17 16 15 15 15 13 11 10 8 11 15 16 16 14 7 11 3 11 13 21 31 36 30 28 32
12 5 24 43 41 42 40 41 44 40 33 31 33 35 34 31 27 20 17 16 15 14 13 11 9 6 6 9 13 15 13 10 10 7 2 10 6 19 30 39 33 31 35
11 7 15 43 42 42 40 42 44 43 37 32 32 35 35 32 28 22 18 18 17 16 13 11 8 5 4 7 9 10 11 5 7 6 10 6 8 17 30 40 35 32 35
17 20 11 31 44 43 43 42 45 45 41 36 34 34 35 33 29 24 20 19 18 15 12 11 8 5 3 6 8 9 12 4 7 7 2 12 15 19 33 40 37 33 34
23 30 24 18 40 45 43 43 46 47 46 41 38 38 36 34 30 25 22 20 19 16 13 10 7 3 3 9 12 9 10 4 3 7 9 19 21 25 32 43 39 33 33
31 36 29 18 21 45 50 47 47 50 49 46 42 40 39 36 31 28 25 22 20 16 12 9 7 3 3 12 21 20 19 4 4 15 16 19 21 21 33 45 40 34 32
17 38 28 26 22 26 56 52 51 50 51 50 47 44 43 41 37 32 27 24 21 18 15 12 8 4 5 10 14 11 11 9 10 17 19 16 15 24 38 43 40 35 32
25 31 32 32 28 24 57 60 56 55 57 56 53 50 47 43 37 32 31 28 26 22 19 15 10 7 10 7 3 4 17 18 11 17 12 13 20 30 38 42 39 34 32
36 29 42 39 33 28 51 64 60 59 60 61 58 55 50 45 37 36 36 33 31 26 21 16 10 11 10 6 11 3 10 10 11 3 12 22 28 32 33 37 36 34 31
36 32 39 54 45 35 37 60 61 62 63 63 64 59 55 50 42 39 40 32 29 25 21 19 19 15 9 2 2 6 10 8 16 22 25 25 24 28 28 33 35 34 28
58 50 17 49 52 46 45 47 60 57 63 63 64 62 58 52 48 38 33 27 15 25 20 23 18 13 11 6 18 26 22 19 21 21 23 27 29 27 23 21 30 29 32
56 65 44 28 54 51 54 51 52 55 48 65 65 65 61 57 54 47 36 33 21 21 22 11 14 15 15 23 21 21 17 13 11 18 22 28 28 24 22 23 23 28 36
39 55 50 38 34 53 67 61 57 51 54 54 68 67 65 62 61 49 48 41 32 23 23 22 23 36 32 27 19 15 9 11 13 18 23 24 24 26 29 30 28 30 37
43 43 54 30 29 42 62 67 62 55 58 54 63 65 62 66 65 52 54 57 46 37 36 30 35 35 29 26 22 15 20 22 24 20 22 19 23 31 23 32 29 34 31
55 51 54 59 42 32 51 72 57 58 57 57 55 58 60 64 73 54 57 58 56 49 46 42 36 32 27 25 20 23 26 25 23 21 17 21 23 19 23 25 24 27 29
62 56 60 63 74 57 44 66 77 62 61 64 63 63 57 58 77 64 59 54 52 50 41 38 35 36 32 27 26 21 16 22 23 22 19 18 17 18 25 18 21 19 33
60 55 56 54 51 69 57 47 71 75 65 66 64 75 70 65 68 78 65 58 52 48 50 40 44 36 36 34 28 25 21 17 28 22 18 17 14 21 17 16 16 30 35
32 39 59 62 62 62 68 72 56 90 76 75 73 81 74 75 70 69 72 63 56 50 51 49 44 34 29 24 19 12 6 8 13 14 13 14 15 16 20 19 27 26 27
50 48 56 61 67 68 67 70 54 73 79 88 97 75 76 72 71 64 76 71 62 57 54 48 43 37 31 26 21 11 8 7 4 14 5 13 6 11 13 17 25 25 30
64 63 62 78 76 76 78 74 63 73 91 100 95 86 83 82 75 62 68 76 63 61 56 49 41 34 32 21 15 7 8 4 3 11 9 16 2 9 17 16 16 22 25
66 65 52 61 87 82 79 78 77 77 91 94 97 85 88 80 73 64 64 69 62 59 59 43 38 36 36 29 20 18 10 10 12 13 16 22 26 23 12 5 8 20 27
67 72 72 64 74 89 81 81 91 82 84 90 88 85 70 80 79 68 66 65 56 61 54 49 40 36 32 33 28 21 19 18 18 16 13 17 18 6 7 3 10 15 26
Wind_Direction_500mb
136 152 157 159 158 155 151 146 144 149 151 154 153 151 151 151 149 145 143 142 141 137 130 121 114 113 111 109 112 107 93 92 83 46 41 60 33 27 32 15 6 5 11
159 159 160 164 164 161 158 153 150 153 156 158 157 154 152 151 149 146 146 145 141 136 130 119 114 108 106 101 99 97 93 96 78 56 47 63 17 20 18 8 1 3 9
135 165 165 169 171 168 165 161 158 159 161 163 162 160 156 154 153 150 148 147 144 138 126 119 112 105 97 97 96 93 100 89 65 45 27 108 20 13 8 3 1 5 8
180 168 181 172 176 177 173 167 166 165 166 166 169 167 163 159 159 156 155 154 148 140 133 126 116 103 95 97 92 92 103 102 86 40 51 113 13 7 3 355 356 5 5
200 209 197 185 179 180 183 176 172 171 173 171 175 175 170 166 165 163 166 167 163 150 141 135 120 103 94 88 92 98 100 102 100 356 40 13 14 8 359 349 354 2 2
186 194 201 197 188 183 186 188 180 178 180 177 178 183 179 174 174 177 176 179 178 162 152 145 131 118 90 87 97 106 99 90 54 344 285 348 357 356 347 347 348 355 357
189 217 203 199 199 191 190 191 191 185 184 185 183 186 186 184 184 187 188 189 185 177 170 161 151 125 86 83 95 101 91 37 104 347 306 260 286 336 339 350 345 349 354
243 248 242 208 206 204 193 196 195 193 190 190 188 192 192 190 193 194 198 197 194 187 182 180 170 153 99 76 73 59 78 57 359 318 100 248 281 314 332 347 342 346 352
243 227 232 228 214 211 205 200 196 198 196 195 194 195 198 198 199 201 203 203 202 197 198 193 187 175 82 67 57 63 76 31 5 257 242 268 281 309 332 344 338 342 349
246 225 212 218 225 219 213 204 202 198 201 199 200 201 201 202 204 207 210 209 209 209 209 208 208 208 113 93 77 82 96 137 237 260 293 260 278 316 338 338 336 338 344
253 213 222 236 230 240 222 209 203 202 202 204 205 204 204 205 207 210 213 215 214 216 218 216 211 208 176 136 93 78 55 343 307 283 283 251 296 332 340 339 338 336 342
242 238 235 225 250 262 215 214 207 202 201 204 209 208 207 209 212 214 217 214 216 216 218 214 211 193 171 124 0 348 28 344 300 283 251 290 331 337 336 337 342 339 340
293 248 252 232 247 258 224 213 211 209 206 205 209 212 210 211 214 215 220 217 216 219 215 209 202 156 152 138 67 100 20 354 86 50 331 331 331 328 329 335 343 344 339
287 319 242 243 238 231 235 220 216 214 212 211 209 209 212 214 210 215 218 219 224 222 211 199 163 154 161 255 315 189 212 310 313 310 313 317 322 324 329 336 339 343 341
278 286 320 240 233 229 223 229 217 219 219 215 216 211 213 215 212 212 215 210 217 214 197 189 191 193 196 227 232 253 261 260 275 283 294 301 316 320 329 332 333 340 337
279 269 283 281 241 235 219 229 222 223 227 225 218 217 214 215 211 212 218 206 197 188 185 178 186 183 205 234 217 229 265 280 250 275 293 299 305 312 320 325 328 332 336
270 270 274 275 248 245 220 228 225 224 232 233 223 220 217 210 203 207 219 215 212 206 194 214 227 223 218 213 238 263 242 213 256 304 289 291 293 299 314 321 323 333 334
244 251 258 266 256 237 235 219 231 221 227 231 222 220 215 205 200 206 215 207 209 204 215 203 206 206 223 231 222 249 271 268 286 296 290 285 282 302 324 324 319 331 328
244 238 238 248 244 249 239 224 224 229 219 224 219 217 214 204 201 207 217 215 201 208 214 218 223 235 213 208 233 237 253 253 292 294 292 293 300 323 321 327 314 325 321
247 245 239 238 246 248 240 236 236 227 220 212 219 219 215 208 206 207 213 219 209 204 220 218 212 213 221 218 219 231 264 288 284 279 300 289 293 298 325 326 299 303 318
252 246 240 236 236 250 245 247 237 223 217 208 214 219 216 212 209 208 211 217 206 206 214 213 216 220 226 241 242 248 258 274 266 281 282 284 296 293 326 303 283 305 311
302 266 251 245 239 238 252 247 247 241 225 225 214 216 217 210 211 213 209 212 208 208 211 215 222 223 228 243 251 279 260 234 229 255 272 267 285 320 326 287 286 290 315
299 290 275 256 246 237 245 254 245 245 241 236 216 216 213 213 215 218 212 208 204 211 215 217 220 223 219 226 238 242 232 195 11 138 152 259 300 325 311 293 294 311 328
293 288 285 264 253 242 235 244 236 225 218 237 229 229 220 212 214 218 210 204 201 208 214 217 224 227 214 219 222 222 230 256 189 169 204 159 297 319 347 327 312 335 341
289 287 287 275 252 242 235 237 234 232 228 231 224 219 221 207 211 215 204 200 199 208 217 212 215 211 209 220 207 186 202 199 216 216 255 254 272 307 315 335 331 324 331
300 288 287 278 265 237 227 233 233 231 229 228 229 215 213 212 208 208 202 200 197 198 200 206 207 208 198 205 208 209 209 213 222 238 258 282 304 70 44 313 347 345 340
Wind_Speed_850mb
16 38 47 45 43 45 44 37 35 40 42 42 41 40 38 37 35 32 30 27 24 22 22 21 20 20 19 18 17 18 19 17 10 12 15 13 22 23 23 25 31 33 32
18 38 42 42 43 43 44 41 34 34 38 39 39 40 39 35 32 29 27 25 21 20 19 19 18 17 17 18 18 20 22 13 9 11 12 12 22 24 28 28 32 34 32
15 31 42 38 40 43 44 44 37 33 35 35 36 37 37 33 29 27 23 21 21 19 17 16 15 14 15 15 16 19 18 10 10 9 6 15 17 19 28 29 31 32 33
4 11 36 41 39 40 42 45 40 33 32 35 34 36 35 32 27 22 17 18 17 17 16 15 13 12 12 12 15 17 15 10 9 5 10 7 12 21 32 33 33 31 33
10 9 31 40 40 40 38 42 42 35 29 32 34 35 34 30 25 21 17 16 15 15 15 13 11 10 8 11 15 16 16 14 7 11 3 11 13 21 31 36 30 28 32
12 5 24 43 41 42 40 41 44 40 33 31 33 35 34 31 27 20 17 16 15 14 13 11 9 6 6 9 13 15 13 10 10 7 2 10 6 19 30 39 33 31 35
11 7 15 43 42 42 40 42 44 43 37 32 32 35 35 32 28 22 18 18 17 16 13 11 8 5 4 7 9 10 11 5 7 6 10 6 8 17 30 40 35 32 35
17 20 11 31 44 43 43 42 45 45 41 36 34 34 35 33 29 24 20 19 18 15 12 11 8 5 3 6 8 9 12 4 7 7 2 12 15 19 33 40 37 33 34
23 30 24 18 40 45 43 43 46 47 46 41 38 38 36 34 30 25 22 20 19 16 13 10 7 3 3 9 12 9 10 4 3 7 9 19 21 25 32 43 39 33 33
31 36 29 18 21 45 50 47 47 50 49 46 42 40 39 36 31 28 25 22 20 16 12 9 7 3 3 12 21 20 19 4 4 15 16 19 21 21 33 45 40 34 32
17 38 28 26 22 26 56 52 51 50 51 50 47 44 43 41 37 32 27 24 21 18 15 12 8 4 5 10 14 11 11 9 10 17 19 16 15 24 38 43 40 35 32
25 31 32 32 28 24 57 60 56 55 57 56 53 50 47 43 37 32 31 28 26 22 19 15 10 7 10 7 3 4 17 18 11 17 12 13 20 30 38 42 39 34 32
36 29 42 39 33 28 51 64 60 59 60 61 58 55 50 45 37 36 36 33 31 26 21 16 10 11 10 6 11 3 10 10 11 3 12 22 28 32 33 37 36 34 31
36 32 39 54 45 35 37 60 61 62 63 63 64 59 55 50 42 39 40 32 29 25 21 19 19 15 9 2 2 6 10 8 16 22 25 25 24 28 28 33 35 34 28
58 50 17 49 52 46 45 47 60 57 63 63 64 62 58 52 48 38 33 27 15 25 20 23 18 13 11 6 18 26 22 19 21 21 23 27 29 27 23 21 30 29 32
56 65 44 28 54 51 54 51 52 55 48 65 65 65 61 57 54 47 36 33 21 21 22 11 14 15 15 23 21 21 17 13 11 18 22 28 28 24 22 23 23 28 36
39 55 50 38 34 53 67 61 57 51 54 54 68 67 65 62 61 49 48 41 32 23 23 22 23 36 32 27 19 15 9 11 13 18 23 24 24 26 29 30 28 30 37
43 43 54 30 29 42 62 67 62 55 58 54 63 65 62 66 65 52 54 57 46 37 36 30 35 35 29 26 22 15 20 22 24 20 22 19 23 31 23 32 29 34 31
55 51 54 59 42 32 51 72 57 58 57 57 55 58 60 64 73 54 57 58 56 49 46 42 36 32 27 25 20 23 26 25 23 21 17 21 23 19 23 25 24 27 29
62 56 60 63 74 57 44 66 77 62 61 64 63 63 57 58 77 64 59 54 52 50 41 38 35 36 32 27 26 21 16 22 23 22 19 18 17 18 25 18 21 19 33
60 55 56 54 51 69 57 47 71 75 65 66 64 75 70 65 68 78 65 58 52 48 50 40 44 36 36 34 28 25 21 17 28 22 18 17 14 21 17 16 16 30 35
32 39 59 62 62 62 68 72 56 90 76 75 73 81 74 75 70 69 72 63 56 50 51 49 44 34 29 24 19 12 6 8 13 14 13 14 15 16 20 19 27 26 27
50 48 56 61 67 68 67 70 54 73 79 88 97 75 76 72 71 64 76 71 62 57 54 48 43 37 31 26 21 11 8 7 4 14 5 13 6 11 13 17 25 25 30
64 63 62 78 76 76 78 74 63 73 91 100 95 86 83 82 75 62 68 76 63 61 56 49 41 34 32 21 15 7 8 4 3 11 9 16 2 9 17 16 16 22 25
66 65 52 61 87 82 79 78 77 77 91 94 97 85 88 80 73 64 64 69 62 59 59 43 38 36 36 29 20 18 10 10 12 13 16 22 26 23 12 5 8 20 27
67 72 72 64 74 89 81 81 91 82 84 90 88 85 70 80 79 68 66 65 56 61 54 49 40 36 32 33 28 21 19 18 18 16 13 17 18 6 7 3 10 15 26
Wind_Direction_850mb
136 152 157 159 158 155 151 146 144 149 151 154 153 151 151 151 149 145 143 142 141 137 130 121 114 113 111 109 112 107 93 92 83 46 41 60 33 27 32 15 6 5 11
159 159 160 164 164 161 158 153 150 153 156 158 157 154 152 151 149 146 146 145 141 136 130 119 114 108 106 101 99 97 93 96 78 56 47 63 17 20 18 8 1 3 9
135 165 165 169 171 168 165 161 158 159 161 163 162 160 156 154 153 150 148 147 144 138 126 119 112 105 97 97 96 93 100 89 65 45 27 108 20 13 8 3 1 5 8
180 168 181 172 176 177 173 167 166 165 166 166 169 167 163 159 159 156 155 154 148 140 133 126 116 103 95 97 92 92 103 102 86 40 51 113 13 7 3 355 356 5 5
200 209 197 185 179 180 183 176 172 171 173 171 175 175 170 166 165 163 166 167 163 150 141 135 120 103 94 88 92 98 100 102 100 356 40 13 14 8 359 349 354 2 2
186 194 201 197 188 183 186 188 180 178 180 177 178 183 179 174 174 177 176 179 178 162 152 145 131 118 90 87 97 106 99 90 54 344 285 348 357 356 347 347 348 355 357
189 217 203 199 199 191 190 191 191 185 184 185 183 186 186 184 184 187 188 189 185 177 170 161 151 125 86 83 95 101 91 37 104 347 306 260 286 336 339 350 345 349 354
243 248 242 208 206 204 193 196 195 193 190 190 188 192 192 190 193 194 198 197 194 187 182 180 170 153 99 76 73 59 78 57 359 318 100 248 281 314 332 347 342 346 352
243 227 232 228 214 211 205 200 196 198 196 195 194 195 198 198 199 201 203 203 202 197 198 193 187 175 82 67 57 63 76 31 5 257 242 268 281 309 332 344 338 342 349
246 225 212 218 225 219 213 204 202 198 201 199 200 201 201 202 204 207 210 209 209 209 209 208 208 208 113 93 77 82 96 137 237 260 293 260 278 316 338 338 336 338 344
253 213 222 236 230 240 222 209 203 202 202 204 205 204 204 205 207 210 213 215 214 216 218 216 211 208 176 136 93 78 55 343 307 283 283 251 296 332 340 339 338 336 342
242 238 235 225 250 262 215 214 207 202 201 204 209 208 207 209 212 214 217 214 216 216 218 214 211 193 171 124 0 348 28 344 300 283 251 290 331 337 336 337 342 339 340
293 248 252 232 247 258 224 213 211 209 206 205 209 212 210 211 214 215 220 217 216 219 215 209 202 156 152 138 67 100 20 354 86 50 331 331 331 328 329 335 343 344 339
287 319 242 243 238 231 235 220 216 214 212 211 209 209 212 214 210 215 218 219 224 222 211 199 163 154 161 255 315 189 212 310 313 310 313 317 322 324 329 336 339 343 341
278 286 320 240 233 229 223 229 217 219 219 215 216 211 213 215 212 212 215 210 217 214 197 189 191 193 196 227 232 253 261 260 275 283 294 301 316 320 329 332 333 340 337
279 269 283 281 241 235 219 229 222 223 227 225 218 217 214 215 211 212 218 206 197 188 185 178 186 183 205 234 217 229 265 280 250 275 293 299 305 312 320 325 328 332 336
270 270 274 275 248 245 220 228 225 224 232 233 223 220 217 210 203 207 219 215 212 206 194 214 227 223 218 213 238 263 242 213 256 304 289 291 293 299 314 321 323 333 334
244 251 258 266 256 237 235 219 231 221 227 231 222 220 215 205 200 206 215 207 209 204 215 203 206 206 223 231 222 249 271 268 286 296 290 285 282 302 324 324 319 331 328
244 238 238 248 244 249 239 224 224 229 219 224 219 217 214 204 201 207 217 215 201 208 214 218 223 235 213 208 233 237 253 253 292 294 292 293 300 323 321 327 314 325 321
247 245 239 238 246 248 240 236 236 227 220 212 219 219 215 208 206 207 213 219 209 204 220 218 212 213 221 218 219 231 264 288 284 279 300 289 293 298 325 326 299 303 318
252 246 240 236 236 250 245 247 237 223 217 208 214 219 216 212 209 208 211 217 206 206 214 213 216 220 226 241 242 248 258 274 266 281 282 284 296 293 326 303 283 305 311
302 266 251 245 239 238 252 247 247 241 225 225 214 216 217 210 211 213 209 212 208 208 211 215 222 223 228 243 251 279 260 234 229 255 272 267 285 320 326 287 286 290 315
299 290 275 256 246 237 245 254 245 245 241 236 216 216 213 213 215 218 212 208 204 211 215 217 220 223 219 226 238 242 232 195 11 138 152 259 300 325 311 293 294 311 328
293 288 285 264 253 242 235 244 236 225 218 237 229 229 220 212 214 218 210 204 201 208 214 217 224 227 214 219 222 222 230 256 189 169 204 159 297 319 347 327 312 335 341
289 287 287 275 252 242 235 237 234 232 228 231 224 219 221 207 211 215 204 200 199 208 217 212 215 211 209 220 207 186 202 199 216 216 255 254 272 307 315 335 331 324 331
300 288 287 278 265 237 227 233 233 231 229 228 229 215 213 212 208 208 202 200 197 198 200 206 207 208 198 205 208 209 209 213 222 238 258 282 304 70 44 313 347 345 340